This is the latest recevied weather packets stored in our database for station/object KC0AFB. If no packets are shown the sender has not sent any weather packets the latest 10 day(s).
| Time | Temp. | Humidity | Pressure | Rain* | Wind** | Luminosity | Snow |
|---|---|---|---|---|---|---|---|
| 1777855207 | 21.67° C | 34% | 1001 hPa | 0 mm | - | 70 W/m² | - |
| 1777854903 | 21.67° C | 34% | 1001.1 hPa | 0 mm | - | 89 W/m² | - |
| 1777854600 | 22.22° C | 33% | 1001.3 hPa | 0 mm | - | 65 W/m² | - |
| 1777854297 | 22.22° C | 32% | 1001.7 hPa | 0 mm | - | 103 W/m² | - |
| 1777853994 | 22.22° C | 32% | 1001.6 hPa | 0 mm | - | 74 W/m² | - |
| 1777853692 | 22.78° C | 31% | 1001.9 hPa | 0 mm | - | 78 W/m² | - |
| 1777853388 | 22.78° C | 33% | 1001.9 hPa | 0 mm | - | 137 W/m² | - |
| 1777853085 | 22.78° C | 33% | 1001.7 hPa | 0 mm | - | 88 W/m² | - |
| 1777852783 | 22.22° C | 32% | 1002.1 hPa | 0 mm | - | 171 W/m² | - |
| 1777852480 | 21.67° C | 33% | 1002.2 hPa | 0 mm | - | 160 W/m² | - |
| 1777852177 | 21.67° C | 34% | 1002.2 hPa | 0 mm | - | 103 W/m² | - |
| 1777851875 | 21.67° C | 33% | 1002.3 hPa | 0 mm | - | 116 W/m² | - |
| 1777851573 | 22.22° C | 32% | 1002.5 hPa | 0 mm | - | 129 W/m² | - |
| 1777851269 | 22.22° C | 31% | 1002.7 hPa | 0 mm | - | 177 W/m² | - |
| 1777850966 | 22.22° C | 32% | 1002.6 hPa | 0 mm | - | 216 W/m² | - |
| 1777850663 | 21.67° C | 31% | 1002.7 hPa | 0 mm | - | 151 W/m² | - |
| 1777850360 | 21.67° C | 33% | 1002.8 hPa | 0 mm | - | 144 W/m² | - |
| 1777850058 | 21.67° C | 33% | 1003 hPa | 0 mm | - | 140 W/m² | - |
| 1777849754 | 21.67° C | 32% | 1002.8 hPa | 0 mm | - | 149 W/m² | - |
| 1777849450 | 22.22° C | 31% | 1003.1 hPa | 0 mm | - | 163 W/m² | - |
| 1777849148 | 22.22° C | 31% | 1003 hPa | 0 mm | - | 199 W/m² | - |
| 1777848844 | 22.78° C | 30% | 1002.9 hPa | 0 mm | - | 246 W/m² | - |
| 1777848541 | 23.33° C | 32% | 1003.1 hPa | 0 mm | - | 185 W/m² | - |
| 1777848237 | 23.33° C | 29% | 1003.2 hPa | 0 mm | - | 403 W/m² | - |
| 1777847935 | 23.33° C | 29% | 1003.3 hPa | 0 mm | - | 263 W/m² | - |
* Rain latest hour (hover to see other rain measurements)
** Current wind speed in m/s (hover to see current wind gust speed)